User: anonymous   Login
Location: Strohbehn Observatory
(42.4649°N, 93.8239°W)
Time: 07:17:09
(UTC-06:00)
Language:

SL-16 R/B - Orbit

View from above orbital plane
View from above orbital plane
View from above satellite
View from above satellite

Ground track
Ground track

The orbit data is extracted from the following two-line orbital elements,

1 31793U 07029B   16036.88895726 -.00000218  00000-0 -89227-4 0  9995
2 31793  70.9777 353.7158 0002671 263.4740 127.6894 14.14355193444405
Epoch (UTC): 05 February 2016 21:20:05
Eccentricity: 0.0002671
inclination: 70.9777°
perigee height: 842 km
apogee height: 846 km
right ascension of ascending node: 353.7158°
argument of perigee: 263.4740°
revolutions per day: 14.14355193
mean anomaly at epoch: 127.6894°
orbit number at epoch: 44440

The dashed part of the orbit path shows where the satellite is in the earth's shadow,  

DLR